Regional Weather Roundup
Issued by NWS

Home | Current Version | Previous Version | Graphics & Text | Print | Product List | Glossary Off
Versions: 1 2 3 4 5 6 7 8 9 10 11 12 13 14 15 16 17 18 19 20 21 22 23 24 25 26 27 28 29 30 31 32 33 34 35 36 37 38 39 40 41 42 43 44 45 46 47 48 49 50

000
ASUS45 KSLC 241310
RWRUT

UTAH REGIONAL WEATHER ROUNDUP
NATIONAL WEATHER SERVICE SALT LAKE CITY UT
600 AM MST FRI FEB 24 2017

UTZ001>011-023>025-241400-

NORTHERN UTAH

CITY           SKY/WX    TMP DP  RH WIND       PRES   REMARKS
BRIGHAM CITY     N/A     26  23  89 S3        29.97R VSB 1
HILL AFB       FLURRIES  23  19  86 S5        29.95R WCI  17
LOGAN          LGT SNOW  26  22  84 NW3       29.95R FOG
OGDEN          CLOUDY    23  21  92 S8        29.96R WCI  14
SALT LAKE CITY LGT SNOW  25  23  92 W8        29.98R FOG     WCI  16
TOOELE VALLEY  CLOUDY    28  21  74 NW6       30.00R WCI  22
WENDOVER       PTCLDY    27   7  43 N12       30.01R WCI  16
HEBER CITY     CLOUDY     7   3  85 E7        29.90R WCI  -5
WEST JORDAN    CLOUDY    28  28 100 CALM      29.98R

$$

UTZ011>015-024>027-241400-

CENTRAL/NORTHEAST UTAH

CITY           SKY/WX    TMP DP  RH WIND       PRES   REMARKS
PROVO AIRPORT  CLOUDY    22  19  89 VRB3      29.98R
MOAB/CANYONLAN CLOUDY    28  17  63 SW6       29.87R WCI  22
DELTA          CLOUDY    19  18  93 CALM      29.99R VSB 1/2
PRICE          PTCLDY    20  10  65 N3        29.85R
ROOSEVELT      MOCLDY    19  18  93 W5        29.88R WCI  13
VERNAL         CLOUDY    16  14  92 SW5       29.86R WCI   9

$$

UTZ013>016-019>022-027-241400-

SOUTHERN UTAH

CITY           SKY/WX    TMP DP  RH WIND       PRES   REMARKS
BRYCE CANYON   LGT SNOW  14   9  80 W10       29.86R WCI   1
CEDAR CITY     CLEAR     22   9  57 CALM      29.96R
MILFORD        CLOUDY    24  21  88 NE5       29.98R WCI  18
ST GEORGE      MOSUNNY   35  17  47 W7        30.06R WCI  29
HANKSVILLE     MOCLDY    25  12  58 CALM      29.92R
BLANDING       CLEAR     23  14  68 W6        29.93R WCI  15

$$

REGIONAL REPORTS     COLORADO/ARIZONA

CITY           SKY/WX    TMP DP  RH WIND       PRES   REMARKS
CRAIG, CO      FLURRIES  17  10  74 SW7       29.83R WCI   8
GRAND JUNCTION CLOUDY    23  21  92 CALM      29.86R
RIFLE, CO      CLOUDY    24  20  84 CALM      29.84R
MONTROSE, CO   CLOUDY    22  14  71 S3        29.87R
CORTEZ, CO     CLEAR     20  16  84 E3        29.87R
COLORADO CITY    N/A     23  18  80 CALM      30.01R
PAGE, AZ       CLEAR     34   7  32 W10G18    29.94R WCI  26
GRAND CANYON   CLEAR     13  10  88 NE6       29.95R WCI   4
KINGMAN, AZ    CLEAR     25   6  44 CALM      30.04R
FLAGSTAFF, AZ  CLEAR     16   6  65 CALM      29.93S

$$

REGIONAL REPORTS    NEVADA/IDAHO/WYOMING

CITY           SKY/WX    TMP DP  RH WIND       PRES   REMARKS
LAS VEGAS, NV  CLEAR     38  18  44 CALM      30.06R
ELY, NY        CLOUDY    11   4  73 CALM      29.98R
ELKO, NV       CLOUDY    22  16  78 S7        30.02R WCI  13
POCATELLO, ID  LGT SNOW  21  19  92 SW22      29.94R VSB 1   WCI   5
BURLEY, ID     FLURRIES  25  14  63 SW23      29.95R WCI  10
FORT BRIDGER,  CLOUDY    14  14  99 W12       29.84R WCI   0
EVANSTON, WY   CLOUDY    13   8  81 SW6       29.82R WCI   4
ROCK SPRINGS,  CLOUDY    13   9  84 CALM      29.82R

$$



USA.gov is the U.S. government's official web portal to all federal, state and local government web resources and services.